Regional Weather Roundup
Issued by NWS Sioux Falls, SD

Home | Current Version | Previous Version | Text Only | Print | Product List | Glossary Off
Versions: 1 2 3 4 5 6 7 8 9 10 11 12 13 14 15 16 17 18 19 20 21 22 23 24 25 26 27 28 29 30 31 32 33 34 35 36 37 38 39 40 41 42 43 44 45 46 47 48 49 50

000
ASUS43 KFSD 231210
RWRFSD

WEATHER ROUNDUP FOR SE SOUTH DAKOTA/SW MINNESOTA/NW IOWA
NATIONAL WEATHER SERVICE SIOUX FALLS SD
700 AM CDT TUE MAY 23 2017

NOTE: "FAIR" INDICATES FEW OR NO CLOUDS BELOW 12,000 FEET WITH NO
SIGNIFICANT WEATHER AND OR OBSTRUCTIONS TO VISIBILITY.


SDZ038>040-050-052>070-231300-
SOUTHEAST SOUTH DAKOTA

CITY           SKY/WX    TMP DP  RH WIND       PRES   REMARKS
BROOKINGS      CLOUDY    46  44  93 NW9       29.88S
CHAMBERLAIN    MOCLDY    49  43  79 NW9       29.98S
6HR MIN TEMP:  49; 6HR MAX TEMP:  51;

HURON          CLOUDY    47  45  93 N14       29.93S
6HR MIN TEMP:  46; 6HR MAX TEMP:  47; 6HR PCP: TRACE;

MADISON        CLOUDY    45  45 100 NW12      29.89S
MITCHELL       CLOUDY    48  45  89 NW12      29.94R
6HR MIN TEMP:  48; 6HR MAX TEMP:  49; 6HR PCP: TRACE;

SIOUX FALLS    CLOUDY    48  45  89 NW12      29.89R
6HR MIN TEMP:  47; 6HR MAX TEMP:  50; 6HR PCP: TRACE;

WINNER         CLOUDY    49  42  77 NW13      30.01R
YANKTON        CLOUDY    48  45  89 NW15      29.92S
$$

MNZ071-072-080-081-089-090-097-098-231300-
SOUTHWEST MINNESOTA

CITY           SKY/WX    TMP DP  RH WIND       PRES   REMARKS
FAIRMONT       CLOUDY    48  45  89 NW10      29.84S
JACKSON        CLOUDY    46  43  87 CALM      29.85S
LUVERNE        CLOUDY    46  41  81 NW9       29.88R
MARSHALL       NOT AVBL
MONTEVIDEO     LGT RAIN  46  46 100 N7        29.86S
PIPESTONE      CLOUDY    46  41  81 N9        29.86S
REDWOOD FALLS  LGT RAIN  48  45  89 NW6       29.85R FOG
TRACY          DRIZZLE   47  46  97 N8        29.87R
WINDOM         RAIN      46  45  93 N7        29.85R
WORTHINGTON    CLOUDY    46  44  93 NW10      29.87R
$$

IAZ001>003-012>014-020>022-031-032-NEZ013-014-SDZ071-231300-
NORTHWEST IOWA

CITY           SKY/WX    TMP DP  RH WIND       PRES   REMARKS
CHEROKEE       CLOUDY    46  44  91 W6        29.88R
DENISON        SUNNY     48  45  87 NW7       29.90S
ESTHERVILLE    CLOUDY    47  47 100 NW8       29.84S
LE MARS        CLOUDY    48  45  87 W3        29.90S
ORANGE CITY    CLOUDY    46  45  93 NW8       29.88S
SHELDON        CLOUDY    48  45  87 NW12        N/A
SIOUX CITY     CLOUDY    48  45  89 W7        29.91S
6HR MIN TEMP:  44; 6HR MAX TEMP:  50;

SPENCER        CLOUDY    48  45  89 W9        29.86R
6HR MIN TEMP:  47; 6HR MAX TEMP:  51; 6HR PCP: TRACE;

STORM LAKE     MOSUNNY   46  43  87 NW14      29.87R
$$

ABBREVIATIONS USED IN REMARKS
   TC - TEMPERATURE IN CELSIUS
  WCI - WIND CHILL INDEX
   HX - HEAT INDEX
  VSB - VISIBILITY




USA.gov is the U.S. government's official web portal to all federal, state and local government web resources and services.